Location: Strawberry
(45.6646°N, 111.9596°W)
Time: 21:59:00
(UTC+00:00)

Courier 1B - Pass Details

Date: 11 October 2022
Orbit: 962 x 1209 km, 28.3° (Epoch: 29 November)

Event Time Altitude Azimuth Distance (km) Brightness Sun altitude
Rises 18:37:05 0° 227° (SW) 4,099 11.1 36.4°
Reaches altitude 10° 18:40:56 10° 210° (SSW) 3,139 10.9 36.6°
Maximum altitude 18:45:58 19° 169° (S) 2,537 11.5 36.7°
Drops below altitude 10° 18:50:57 10° 129° (SE) 3,101 10.8 36.8°
Sets 18:54:42 0° 112° (ESE) 4,032 11.0 36.9°
